Hourly Weather Sudzinek

Today, 17 January, Sunday

Time Temperature Precipitation Wind Pressure Humidity
00:00 -10°C° 0.2 mm 4 mps 741 mmHg 93%
01:00 -11°C° 0 mm 4 mps 741 mmHg 92%
02:00 -12°C° 0 mm 3 mps 741 mmHg 93%
03:00 -14°C° 0 mm 3 mps 741 mmHg 93%
04:00 -15°C° 0 mm 3 mps 741 mmHg 93%
05:00 -15°C° 0 mm 3 mps 742 mmHg 94%
06:00 -15°C° 0 mm 2 mps 742 mmHg 94%
07:00 -16°C° 0 mm 2 mps 743 mmHg 94%
08:00 -15°C° 0 mm 2 mps 743 mmHg 92%
09:00 -13°C° 0 mm 1 mps 744 mmHg 90%
10:00 -12°C° 0 mm 1 mps 745 mmHg 88%
11:00 -12°C° 0 mm 1 mps 745 mmHg 86%
12:00 -11°C° 0 mm 1 mps 745 mmHg 84%
13:00 -10°C° 0 mm 1 mps 745 mmHg 83%
14:00 -11°C° 0 mm 1 mps 745 mmHg 86%
15:00 -11°C° 0 mm 1 mps 746 mmHg 89%
16:00 -14°C° 0 mm 2 mps 746 mmHg 92%
17:00 -12°C° 0 mm 1 mps 746 mmHg 92%
18:00 -13°C° 0 mm 1 mps 746 mmHg 93%
19:00 -13°C° 0 mm 1 mps 747 mmHg 94%
20:00 -13°C° 0 mm 1 mps 747 mmHg 94%
21:00 -13°C° 0 mm 1 mps 747 mmHg 93%
22:00 -13°C° 0 mm 1 mps 747 mmHg 93%
23:00 -14°C° 0 mm 1 mps 747 mmHg 93%

Tomorrow, 18 January, Monday

Time Temperature Precipitation Wind Pressure Humidity
00:00 -14°C° 0 mm 1 mps 747 mmHg 93%
01:00 -16°C° 0 mm 2 mps 747 mmHg 93%
02:00 -14°C° 0 mm 1 mps 747 mmHg 93%
03:00 -14°C° 0 mm 1 mps 747 mmHg 94%
04:00 -14°C° 0 mm 1 mps 747 mmHg 94%
05:00 -14°C° 0 mm 1 mps 747 mmHg 93%
06:00 -14°C° 0 mm 1 mps 747 mmHg 93%
07:00 -14°C° 0 mm 1 mps 747 mmHg 92%
08:00 -13°C° 0 mm 1 mps 747 mmHg 90%
09:00 -12°C° 0 mm 1 mps 747 mmHg 88%
10:00 -11°C° 0 mm 1 mps 747 mmHg 86%
11:00 -10°C° 0 mm 1 mps 747 mmHg 84%
12:00 -9°C° 0 mm 1 mps 746 mmHg 81%
13:00 -8°C° 0 mm 2 mps 746 mmHg 79%
14:00 -9°C° 0 mm 2 mps 746 mmHg 82%
15:00 -8°C° 0 mm 1 mps 746 mmHg 85%
16:00 -8°C° 0 mm 1 mps 745 mmHg 87%
17:00 -9°C° 0 mm 2 mps 745 mmHg 88%
18:00 -10°C° 0 mm 2 mps 745 mmHg 88%
19:00 -10°C° 0 mm 2 mps 745 mmHg 88%
20:00 -9°C° 0.1 mm 2 mps 745 mmHg 90%
21:00 -8°C° 0.1 mm 2 mps 745 mmHg 92%
22:00 -7°C° 0.1 mm 2 mps 745 mmHg 95%
23:00 -8°C° 0.1 mm 3 mps 744 mmHg 95%

Day after tomorrow, 19 January, Tuesday

Time Temperature Precipitation Wind Pressure Humidity
00:00 -7°C° 0.1 mm 3 mps 744 mmHg 95%
01:00 -7°C° 0.1 mm 3 mps 744 mmHg 95%
02:00 -7°C° 0.3 mm 4 mps 743 mmHg 95%
03:00 -5°C° 0.3 mm 4 mps 743 mmHg 95%
04:00 -5°C° 0.3 mm 5 mps 742 mmHg 95%
05:00 -5°C° 0.2 mm 5 mps 742 mmHg 95%
06:00 -5°C° 0.2 mm 5 mps 742 mmHg 95%
07:00 -4°C° 0.2 mm 5 mps 742 mmHg 96%
08:00 -4°C° 0.2 mm 5 mps 742 mmHg 96%
09:00 -2°C° 0.2 mm 5 mps 742 mmHg 96%
10:00 -2°C° 0.2 mm 5 mps 741 mmHg 96%
11:00 -2°C° 0.2 mm 5 mps 741 mmHg 96%
12:00 -2°C° 0.2 mm 5 mps 741 mmHg 97%
13:00 -2°C° 0.2 mm 5 mps 741 mmHg 98%
14:00 -2°C° 0.1 mm 4 mps 740 mmHg 96%
15:00 -2°C° 0.1 mm 4 mps 740 mmHg 94%
16:00 -2°C° 0.1 mm 4 mps 740 mmHg 92%
17:00 -2°C° 0.1 mm 4 mps 740 mmHg 93%
18:00 -2°C° 0.1 mm 4 mps 739 mmHg 94%
19:00 -3°C° 0.1 mm 4 mps 739 mmHg 95%
20:00 -2°C° 0.2 mm 4 mps 739 mmHg 96%
21:00 -2°C° 0.2 mm 4 mps 739 mmHg 96%
22:00 -2°C° 0.2 mm 4 mps 738 mmHg 97%
23:00 -2°C° 0.4 mm 4 mps 738 mmHg 97%

20 January, Wednesday

Time Temperature Precipitation Wind Pressure Humidity
00:00 -2°C° 0.4 mm 4 mps 738 mmHg 97%
01:00 -2°C° 0.4 mm 4 mps 738 mmHg 97%
02:00 -2°C° 0.6 mm 4 mps 738 mmHg 98%
03:00 -1°C° 0.6 mm 4 mps 737 mmHg 98%
04:00 -1°C° 0.6 mm 4 mps 737 mmHg 98%
05:00 0°C° 0.6 mm 4 mps 737 mmHg 98%
06:00 0°C° 0.6 mm 5 mps 738 mmHg 98%
07:00 0°C° 0.6 mm 5 mps 738 mmHg 98%
08:00 0°C° 0.1 mm 5 mps 738 mmHg 97%
09:00 0°C° 0.1 mm 5 mps 738 mmHg 97%
10:00 0°C° 0.1 mm 5 mps 738 mmHg 97%
11:00 0°C° 0 mm 5 mps 738 mmHg 97%
12:00 +1°C° 0 mm 5 mps 738 mmHg 97%
13:00 +1°C° 0 mm 5 mps 738 mmHg 98%
14:00 +1°C° 0 mm 5 mps 738 mmHg 93%
15:00 +1°C° 0 mm 5 mps 738 mmHg 88%
16:00 +1°C° 0 mm 5 mps 738 mmHg 83%
17:00 +1°C° 0 mm 5 mps 738 mmHg 82%
18:00 0°C° 0 mm 5 mps 738 mmHg 80%
19:00 0°C° 0 mm 4 mps 738 mmHg 79%
20:00 0°C° 0 mm 4 mps 738 mmHg 79%
21:00 0°C° 0 mm 4 mps 738 mmHg 79%
22:00 -1°C° 0 mm 4 mps 738 mmHg 78%
23:00 -1°C° 0 mm 4 mps 738 mmHg 80%

21 January, Thursday

Time Temperature Precipitation Wind Pressure Humidity
00:00 -1°C° 0 mm 3 mps 738 mmHg 81%
01:00 -1°C° 0 mm 3 mps 737 mmHg 83%
02:00 -1°C° 0 mm 3 mps 737 mmHg 84%
03:00 -1°C° 0 mm 3 mps 737 mmHg 85%
04:00 -2°C° 0 mm 3 mps 737 mmHg 86%
05:00 -1°C° 0 mm 3 mps 736 mmHg 86%
06:00 -1°C° 0 mm 2 mps 736 mmHg 86%
07:00 -1°C° 0 mm 2 mps 736 mmHg 86%
08:00 -1°C° 0 mm 3 mps 736 mmHg 87%
09:00 0°C° 0 mm 3 mps 735 mmHg 88%
10:00 +1°C° 0 mm 3 mps 735 mmHg 89%
11:00 +1°C° 0 mm 3 mps 735 mmHg 92%
12:00 +2°C° 0 mm 3 mps 735 mmHg 94%
13:00 +2°C° 0 mm 3 mps 735 mmHg 96%
14:00 +2°C° 0 mm 3 mps 735 mmHg 95%
15:00 +2°C° 0 mm 3 mps 734 mmHg 93%
16:00 +2°C° 0 mm 3 mps 734 mmHg 92%
17:00 +1°C° 0 mm 3 mps 734 mmHg 90%
18:00 0°C° 0 mm 4 mps 735 mmHg 88%
19:00 -1°C° 0 mm 5 mps 735 mmHg 87%
20:00 0°C° 0 mm 5 mps 735 mmHg 85%
21:00 0°C° 0 mm 5 mps 736 mmHg 83%
22:00 0°C° 0 mm 5 mps 736 mmHg 81%
23:00 0°C° 0 mm 5 mps 736 mmHg 83%

22 January, Friday

Time Temperature Precipitation Wind Pressure Humidity
00:00 0°C° 0 mm 4 mps 736 mmHg 84%
01:00 +1°C° 0 mm 4 mps 736 mmHg 86%
02:00 0°C° 0 mm 4 mps 736 mmHg 87%
03:00 +1°C° 0 mm 3 mps 735 mmHg 87%
04:00 +1°C° 0 mm 3 mps 735 mmHg 88%
05:00 +1°C° 0 mm 3 mps 734 mmHg 88%
06:00 +1°C° 0 mm 3 mps 734 mmHg 88%
07:00 +1°C° 0 mm 3 mps 733 mmHg 89%
08:00 0°C° 0 mm 4 mps 733 mmHg 89%
09:00 +1°C° 0 mm 5 mps 732 mmHg 90%
10:00 +1°C° 0 mm 5 mps 732 mmHg 90%
11:00 +2°C° 0 mm 5 mps 731 mmHg 91%
12:00 +2°C° 0 mm 5 mps 731 mmHg 92%
13:00 +2°C° 0 mm 6 mps 730 mmHg 93%
14:00 +2°C° 0 mm 5 mps 730 mmHg 92%
15:00 +2°C° 0 mm 5 mps 729 mmHg 91%
16:00 +2°C° 0 mm 5 mps 729 mmHg 90%
17:00 +2°C° 0 mm 5 mps 729 mmHg 91%
18:00 +3°C° 0 mm 4 mps 729 mmHg 91%
19:00 +3°C° 0 mm 4 mps 728 mmHg 91%
20:00 +1°C° 0 mm 4 mps 729 mmHg 91%
21:00 +1°C° 0 mm 4 mps 729 mmHg 91%
22:00 +2°C° 0 mm 3 mps 729 mmHg 92%
23:00 +2°C° 0 mm 3 mps 729 mmHg 92%
Show more